Location: USNO
(38.9242°N, 77.0663°W)
Time: 22:57:06
(UTC-04:00)

Vanguard 2 - Visible Passes

Search period start: 24 April 2018 00:00
Search period end: 04 May 2018 00:00
Orbit: 553 x 2937 km, 32.9° (Epoch: 24 April)

Date Brightness Start Highest point End Pass type
(mag) Time Alt. Az. Time Alt. Az. Time Alt. Az.
24 Apr 9.8 21:00:05 10° SSW 21:10:47 30° SSE 21:15:32 20° ESE visible
24 Apr 9.6 23:10:27 10° WSW 23:17:00 34° SW 23:17:00 34° SW visible
25 Apr 9.6 21:16:54 10° SW 21:28:32 37° SSE 21:32:58 24° ESE visible
25 Apr 9.6 23:28:06 10° WSW 23:34:25 34° SW 23:34:25 34° SW visible
26 Apr 9.4 21:33:58 10° SW 21:46:11 44° SSE 21:50:13 29° ESE visible
26 Apr 9.7 23:45:46 10° WSW 23:51:39 33° WSW 23:51:39 33° WSW visible
27 Apr 9.2 21:51:12 10° WSW 22:03:45 51° SSE 22:07:16 35° ESE visible
28 Apr 9.8 00:03:25 10° W 00:08:40 30° WSW 00:08:40 30° WSW visible
28 Apr 9.0 22:08:32 10° WSW 22:21:11 57° S 22:24:07 42° ESE visible
29 Apr 10.0 00:21:01 10° W 00:25:30 26° WSW 00:25:30 26° WSW visible
29 Apr 10.0 20:13:55 10° SW 20:28:24 46° SSE 20:37:57 10° E visible
29 Apr 8.9 22:25:55 10° WSW 22:38:33 60° S 22:40:46 49° SE visible
30 Apr 10.2 00:38:34 10° W 00:42:09 22° WSW 00:42:09 22° WSW visible
30 Apr 9.8 20:30:45 10° SW 20:45:41 52° SSE 20:55:18 10° E visible
30 Apr 8.8 22:43:18 10° WSW 22:55:48 62° S 22:57:16 55° SE visible
01 May 10.4 00:56:05 10° W 00:58:38 18° W 00:58:38 18° W visible
01 May 9.7 20:47:43 10° WSW 21:02:54 58° S 21:12:14 11° E visible
01 May 8.8 23:00:39 10° W 23:12:56 60° S 23:13:35 59° S visible
02 May 10.6 01:13:36 10° W 01:14:57 14° W 01:14:57 14° W visible
02 May 9.6 21:04:46 10° WSW 21:20:01 63° S 21:28:24 15° E visible
02 May 8.9 23:17:57 10° W 23:29:45 56° SSW 23:29:45 56° SSW visible
03 May 9.5 21:21:50 10° WSW 21:37:03 65° S 21:44:27 20° ESE visible
03 May 9.2 23:35:10 10° W 23:45:47 49° SW 23:45:47 49° SW visible
